This is the latest recevied weather packets stored in our database for station/object K5NCO. If no packets are shown the sender has not sent any weather packets the latest 1 day(s).
| Time | Temp. | Humidity | Pressure | Rain* | Wind** | Luminosity | Snow |
|---|---|---|---|---|---|---|---|
| 1778026525 | 27.78° C | 77% | 1007.6 hPa | 0 mm | 1.79 m/s, 128° | 50 W/m² | - |
| 1778026222 | 27.78° C | 77% | 1007.8 hPa | 0 mm | 1.34 m/s, 125° | 49 W/m² | - |
| 1778025920 | 27.78° C | 76% | 1007.7 hPa | 0 mm | 2.68 m/s, 161° | 60 W/m² | - |
| 1778025617 | 27.78° C | 76% | 1007.5 hPa | 0 mm | 3.13 m/s, 159° | 67 W/m² | - |
| 1778025315 | 27.78° C | 75% | 1007.7 hPa | 0 mm | 3.13 m/s, 168° | 60 W/m² | - |
| 1778025011 | 27.78° C | 76% | 1007.5 hPa | 0 mm | 1.79 m/s, 182° | 62 W/m² | - |
| 1778024708 | 27.78° C | 76% | 1007.6 hPa | 0 mm | 2.68 m/s, 188° | 83 W/m² | - |
| 1778024405 | 27.78° C | 75% | 1007.3 hPa | 0 mm | 2.68 m/s, 170° | 71 W/m² | - |
| 1778024102 | 27.78° C | 76% | 1007.3 hPa | 0 mm | 2.24 m/s, 125° | 111 W/m² | - |
| 1778023800 | 27.78° C | 75% | 1007.2 hPa | 0 mm | 3.58 m/s, 138° | 125 W/m² | - |
| 1778023498 | 27.78° C | 75% | 1007.1 hPa | 0 mm | 4.02 m/s, 129° | 107 W/m² | - |
| 1778023194 | 28.33° C | 75% | 1007 hPa | 0 mm | 1.79 m/s, 72° | 137 W/m² | - |
| 1778022891 | 28.33° C | 74% | 1007.3 hPa | 0 mm | 1.79 m/s, 181° | 131 W/m² | - |
| 1778022589 | 28.33° C | 73% | 1007.4 hPa | 0 mm | 3.13 m/s, 183° | 156 W/m² | - |
| 1778022282 | 28.33° C | 74% | 1007.2 hPa | 0 mm | 4.02 m/s, 204° | 149 W/m² | - |
| 1778021978 | 28.33° C | 75% | 1007.1 hPa | 0 mm | 3.13 m/s, 169° | 145 W/m² | - |
| 1778021675 | 28.89° C | 74% | 1007.1 hPa | 0 mm | 3.58 m/s, 107° | 172 W/m² | - |
| 1778021371 | 28.33° C | 73% | 1007 hPa | 0 mm | 1.79 m/s, 197° | 206 W/m² | - |
| 1778021068 | 28.33° C | 74% | 1007.1 hPa | 0 mm | 1.79 m/s, 109° | 166 W/m² | - |
| 1778020765 | 28.33° C | 73% | 1007.2 hPa | 0 mm | 1.79 m/s, 150° | 241 W/m² | - |
| 1778020462 | 28.33° C | 74% | 1007.1 hPa | 0 mm | 3.13 m/s, 160° | 208 W/m² | - |
| 1778020158 | 28.33° C | 74% | 1007.1 hPa | 0 mm | 3.58 m/s, 185° | 174 W/m² | - |
| 1778019854 | 28.33° C | 74% | 1006.9 hPa | 0 mm | 2.68 m/s, 126° | 291 W/m² | - |
| 1778019550 | 28.33° C | 74% | 1006.8 hPa | 0 mm | 3.13 m/s, 166° | 221 W/m² | - |
| 1778019248 | 28.33° C | 74% | 1007.2 hPa | 0 mm | 4.02 m/s, 114° | 361 W/m² | - |
* Rain latest hour (hover to see other rain measurements)
** Current wind speed in m/s (hover to see current wind gust speed)